Location: Newark
(37.9800°N, 91.3000°W)
Time: 11:56:57
(UTC+00:00)

NOAA 19 - Pass Details

Date: 15 December 2019
Orbit: 840 x 862 km, 99.2° (Epoch: 17 January)

Event Time Altitude Azimuth Distance (km) Brightness Sun altitude
Rises 23:36:06 0° 186° (S) 3,418 8.8 -9.6°
Reaches altitude 10° 23:38:38 10° 195° (SSW) 2,488 8.2 -10.0°
Maximum altitude 23:43:43 37° 262° (W) 1,310 6.9 -11.0°
Drops below altitude 10° 23:48:50 10° 329° (NNW) 2,506 7.8 -11.9°
Sets 23:51:25 0° 337° (NNW) 3,446 8.4 -12.4°
